{"data":{"norad_id":65397,"intl_designator":"2025-191U","name":"STARLINK-34940","alt_names":[],"object_type":"PAYLOAD","status":"ACTIVE","operator":null,"country":"US","launch_date":"2025-08-30","launch_site_code":"AFWTR","launch_vehicle":null,"mission":null,"orbit_class":"UNKNOWN","rcs_meters":null,"size_class":null,"mass_kg":null,"dimensions":null,"purposes":["comms"],"wikipedia_slug":null,"has_3d_model":false,"image_url":null,"decayed_at":null,"tle_current":{"epoch":"2026-05-25T03:20:02.378688Z","epoch_age_seconds":73110,"freshness":"FRESH","line1":"1 65397U 25191U   26145.13891642  .00004135  00000+0  29042-3 0  9992","line2":"2 65397  97.4498  16.5158 0002498  90.9741 269.1773 15.05656490 41777","mean_motion":15.0565649,"eccentricity":0.0002498,"inclination_deg":97.4498,"raan_deg":16.5158,"arg_perigee_deg":90.9741,"mean_anomaly_deg":269.1773,"bstar":0.00029042,"rev_number":4177,"period_min":95.639344668849,"perigee_km":547.76072514303,"apogee_km":551.22176821507,"semimajor_km":6927.628246679,"source":"CELESTRAK","updated_at":"2026-05-25T13:38:20.795932Z"}}}